Location: *
(2.5500°S, 65.9667°W)
Time: 10:53:48
(UTC+00:00)

Cosmos 2173 Rocket - Pass Details

Date: 26 October 2021
Orbit: 945 x 1000 km, 83.0° (Epoch: 28 November)

Event Time Altitude Azimuth Distance (km) Brightness Sun altitude
Rises 22:34:10 0° 168° (SSE) 3,618 7.0 -5.9°
Reaches altitude 10° 22:36:50 10° 160° (SSE) 2,675 6.2 -6.5°
Maximum altitude 22:42:27 38° 93° (E) 1,411 4.4 -7.9°
Drops below altitude 10° 22:48:05 10° 27° (NNE) 2,691 5.9 -9.2°
Sets 22:50:45 0° 19° (NNE) 3,643 6.7 -9.9°
